| time (UTC) | temp C | wind direction | speed KPH | gust KPH | rain 1hr cm | rain 24hr cm | rain mn cm | humidity % | barometer mb |
| 20260901200057 | 35 | 281 | 9.7 | 19.3 | 0.00 | 0.00 | 0.00 | 54 | 1013.8 |
| 20260901194559 | 35 | 312 | 9.7 | 22.5 | 0.00 | 0.00 | 0.00 | 55 | 1014.0 |
| 20260901193056 | 34 | 308 | 4.8 | 16.1 | 0.00 | 0.00 | 0.00 | 56 | 1014.4 |
| 20260901191604 | 34 | 328 | 4.8 | 16.1 | 0.00 | 0.00 | 0.00 | 56 | 1014.5 |
| 20260901184600 | 33 | 292 | 11.3 | 19.3 | 0.00 | 0.00 | 0.00 | 57 | 1014.3 |
| 20260901183056 | 34 | 246 | 6.4 | 19.3 | 0.00 | 0.00 | 0.00 | 56 | 1014.7 |
| 20260901181607 | 34 | 90 | 8.0 | 22.5 | 0.00 | 0.00 | 0.00 | 57 | 1014.6 |
| 20260901180100 | 33 | 256 | 4.8 | 17.7 | 0.00 | 0.00 | 0.00 | 57 | 1014.9 |
| 20260901174604 | 33 | 301 | 12.9 | 22.5 | 0.00 | 0.00 | 0.00 | 57 | 1014.7 |
| 20260901173052 | 33 | 234 | 9.7 | 17.7 | 0.00 | 0.00 | 0.00 | 58 | 1014.8 |
| 20260901171614 | 33 | 273 | 4.8 | 20.9 | 0.00 | 0.00 | 0.00 | 57 | 1014.7 |
| 20260901170108 | 33 | 265 | 9.7 | 16.1 | 0.00 | 0.00 | 0.00 | 58 | 1014.7 |
| 20260901164619 | 33 | 309 | 6.4 | 14.5 | 0.00 | 0.00 | 0.00 | 58 | 1014.9 |
| 20260901163100 | 33 | 285 | 6.4 | 12.9 | 0.00 | 0.00 | 0.00 | 59 | 1015.0 |
| 20260901161604 | 33 | 291 | 3.2 | 12.9 | 0.00 | 0.00 | 0.00 | 59 | 1015.3 |
| 20260901160108 | 32 | 202 | 8.0 | 16.1 | 0.00 | 0.00 | 0.00 | 56 | 1015.4 |
| 20260901154606 | 32 | 13 | 4.8 | 12.9 | 0.00 | 0.00 | 0.00 | 55 | 1015.4 |
| 20260901153103 | 32 | 216 | 1.6 | 9.7 | 0.00 | 0.00 | 0.00 | 62 | 1015.8 |
| 20260901151602 | 31 | 306 | 0.0 | 6.4 | 0.00 | 0.00 | 0.00 | 67 | 1015.9 |
| 20260901150036 | 30 | 289 | 8.0 | 14.5 | 0.00 | 0.00 | 0.00 | 67 | 1015.8 |
| 20260901144535 | 30 | 250 | 6.4 | 14.5 | 0.00 | 0.00 | 0.00 | 69 | 1016.0 |
| 20260901143034 | 30 | 273 | 9.7 | 14.5 | 0.00 | 0.00 | 0.00 | 70 | 1016.2 |
| 20260901141539 | 29 | 269 | 4.8 | 12.9 | 0.00 | 0.00 | 0.00 | 72 | 1015.9 |
| 20260901140034 | 28 | 273 | 4.8 | 12.9 | 0.00 | 0.00 | 0.00 | 74 | 1015.7 |
| 20260901134534 | 27 | 252 | 1.6 | 6.4 | 0.00 | 0.00 | 0.00 | 78 | 1015.5 |
| 20260901133035 | 26 | 236 | 8.0 | 12.9 | 0.00 | 0.00 | 0.00 | 81 | 1015.8 |
| 20260901131545 | 26 | 252 | 1.6 | 11.3 | 0.00 | 0.00 | 0.00 | 82 | 1015.8 |
| 20260901130037 | 26 | 236 | 4.8 | 14.5 | 0.00 | 0.00 | 0.00 | 82 | 1015.8 |
| 20260901124541 | 26 | 246 | 6.4 | 14.5 | 0.00 | 0.00 | 0.00 | 82 | 1015.8 |
| 20260901123042 | 26 | 277 | 4.8 | 9.7 | 0.00 | 0.00 | 0.00 | 84 | 1015.7 |
| 20260901121541 | 25 | 265 | 0.0 | 0.0 | 0.00 | 0.00 | 0.00 | 86 | 1015.7 |
| 20260901120034 | 25 | 290 | 1.6 | 6.4 | 0.00 | 0.00 | 0.00 | 87 | 1015.4 |
| 20260901114552 | 25 | 231 | 0.0 | 0.0 | 0.00 | 0.00 | 0.00 | 90 | 1015.5 |
| 20260901113035 | 24 | 214 | 0.0 | 0.0 | 0.00 | 0.00 | 0.00 | 90 | 1015.4 |
| 20260901111542 | 23 | 245 | 0.0 | 0.0 | 0.00 | 0.00 | 0.00 | 90 | 1015.2 |
| 20260901110035 | 23 | 181 | 0.0 | 0.0 | 0.00 | 0.00 | 0.00 | 90 | 1014.9 |
| 20260901104534 | 23 | 214 | 0.0 | 0.0 | 0.00 | 0.00 | 0.00 | 90 | 1014.7 |
| 20260901103037 | 23 | 214 | 0.0 | 0.0 | 0.00 | 0.00 | 0.00 | 90 | 1014.7 |
| 20260901101538 | 23 | 186 | 0.0 | 1.6 | 0.00 | 0.00 | 0.00 | 90 | 1014.7 |
| 20260901100037 | 24 | 121 | 0.0 | 0.0 | 0.00 | 0.00 | 0.00 | 90 | 1014.7 |
| 20260901094534 | 24 | 121 | 0.0 | 0.0 | 0.00 | 0.00 | 0.00 | 90 | 1014.7 |
| 20260901093041 | 24 | 226 | 0.0 | 0.0 | 0.00 | 0.00 | 0.00 | 90 | 1014.7 |
| 20260901091543 | 24 | 13 | 0.0 | 0.0 | 0.00 | 0.00 | 0.00 | 89 | 1014.7 |
| 20260901090035 | 24 | 174 | 0.0 | 0.0 | 0.00 | 0.00 | 0.00 | 88 | 1014.7 |
| 20260901084534 | 25 | 174 | 0.0 | 0.0 | 0.00 | 0.00 | 0.00 | 87 | 1014.7 |
| 20260901083039 | 25 | 174 | 0.0 | 0.0 | 0.00 | 0.00 | 0.00 | 87 | 1015.0 |
| 20260901081542 | 25 | 174 | 0.0 | 0.0 | 0.00 | 0.00 | 0.00 | 87 | 1015.0 |
| 20260901080038 | 25 | 201 | 0.0 | 0.0 | 0.00 | 0.00 | 0.00 | 87 | 1015.0 |
| 20260901074550 | 25 | 257 | 0.0 | 0.0 | 0.00 | 0.00 | 0.00 | 86 | 1015.2 |
| 20260901073038 | 25 | 257 | 0.0 | 0.0 | 0.00 | 0.00 | 0.00 | 86 | 1015.4 |
| 20260901071537 | 25 | 257 | 0.0 | 0.0 | 0.00 | 0.00 | 0.00 | 86 | 1015.2 |
| 20260901070042 | 25 | 273 | 0.0 | 6.4 | 0.00 | 0.00 | 0.00 | 86 | 1015.4 |
| 20260901064541 | 25 | 226 | 0.0 | 6.4 | 0.00 | 0.00 | 0.00 | 85 | 1015.4 |
| 20260901063043 | 25 | 200 | 0.0 | 6.4 | 0.00 | 0.00 | 0.00 | 85 | 1015.5 |
| 20260901061543 | 25 | 175 | 0.0 | 0.0 | 0.00 | 0.00 | 0.00 | 86 | 1015.7 |
| 20260901060044 | 25 | 221 | 0.0 | 6.4 | 0.00 | 0.00 | 0.00 | 86 | 1015.7 |
| 20260901054542 | 25 | 239 | 3.2 | 4.8 | 0.00 | 0.00 | 0.00 | 86 | 1015.9 |
| 20260901053050 | 25 | 248 | 1.6 | 6.4 | 0.00 | 0.00 | 0.00 | 86 | 1016.0 |
| 20260901051553 | 25 | 277 | 0.0 | 0.0 | 0.00 | 0.00 | 0.00 | 85 | 1016.2 |
| 20260901050048 | 26 | 277 | 0.0 | 0.0 | 0.00 | 0.00 | 0.00 | 85 | 1016.2 |
| 20260901044543 | 26 | 309 | 1.6 | 4.8 | 0.00 | 0.00 | 0.00 | 83 | 1016.4 |
| 20260901043042 | 26 | 238 | 3.2 | 6.4 | 0.00 | 0.00 | 0.00 | 82 | 1016.4 |
| 20260901041543 | 26 | 246 | 0.0 | 0.0 | 0.00 | 0.00 | 0.00 | 81 | 1016.4 |
| 20260901040108 | 27 | 146 | 0.0 | 0.0 | 0.00 | 0.00 | 0.00 | 80 | 1016.5 |
| 20260901034542 | 27 | 150 | 0.0 | 0.0 | 0.00 | 0.00 | 0.00 | 80 | 1016.5 |
| 20260901033053 | 27 | 176 | 0.0 | 0.0 | 0.00 | 0.00 | 0.00 | 79 | 1016.4 |
| 20260901031549 | 27 | 194 | 0.0 | 6.4 | 0.00 | 0.00 | 0.00 | 79 | 1016.3 |
| 20260901030046 | 27 | 138 | 0.0 | 6.4 | 0.00 | 0.00 | 0.00 | 77 | 1016.2 |
| 20260901024543 | 27 | 138 | 0.0 | 0.0 | 0.00 | 0.00 | 0.00 | 76 | 1016.2 |
| 20260901023053 | 27 | 166 | 0.0 | 0.0 | 0.00 | 0.00 | 0.00 | 76 | 1016.2 |
| 20260901021549 | 28 | 165 | 0.0 | 0.0 | 0.00 | 0.00 | 0.00 | 75 | 1016.5 |
| 20260901020050 | 28 | 153 | 3.2 | 6.4 | 0.00 | 0.00 | 0.00 | 74 | 1016.2 |
| 20260901014547 | 28 | 139 | 0.0 | 4.8 | 0.00 | 0.00 | 0.00 | 74 | 1016.3 |
| 20260901013107 | 28 | 169 | 0.0 | 0.0 | 0.00 | 0.00 | 0.00 | 74 | 1016.3 |
| 20260901011548 | 28 | 183 | 0.0 | 0.0 | 0.00 | 0.00 | 0.00 | 73 | 1016.0 |
| 20260901010048 | 28 | 107 | 0.0 | 0.0 | 0.00 | 0.00 | 0.00 | 73 | 1016.2 |
| 20260901004545 | 28 | 150 | 0.0 | 4.8 | 0.00 | 0.00 | 0.00 | 72 | 1016.1 |
| 20260901003042 | 29 | 151 | 1.6 | 8.0 | 0.00 | 0.00 | 0.00 | 72 | 1016.1 |
| 20260901001547 | 29 | 163 | 3.2 | 11.3 | 0.00 | 0.00 | 0.00 | 71 | 1016.0 |
| 20260901000056 | 29 | 118 | 0.0 | 9.7 | 0.00 | 0.00 | 0.00 | 70 | 1016.1 |
| 20260831234555 | 30 | 97 | 1.6 | 6.4 | 0.00 | 0.00 | 0.00 | 70 | 1016.0 |
| 20260831233058 | 30 | 109 | 0.0 | 0.0 | 0.00 | 0.00 | 0.00 | 70 | 1016.1 |
| 20260831231553 | 30 | 90 | 0.0 | 0.0 | 0.00 | 0.00 | 0.00 | 70 | 1016.2 |
| 20260831230050 | 30 | 74 | 3.2 | 8.0 | 0.00 | 0.00 | 0.00 | 70 | 1016.3 |
| 20260831224550 | 30 | 92 | 0.0 | 11.3 | 0.00 | 0.00 | 0.00 | 71 | 1016.3 |
| 20260831223050 | 30 | 26 | 4.8 | 8.0 | 0.00 | 0.00 | 0.00 | 72 | 1016.3 |
| 20260831221541 | 30 | 19 | 4.8 | 8.0 | 0.00 | 0.00 | 0.00 | 70 | 1016.2 |
| 20260831220053 | 30 | 22 | 3.2 | 9.7 | 0.00 | 0.00 | 0.00 | 69 | 1016.5 |
| 20260831214550 | 30 | 56 | 4.8 | 9.7 | 0.00 | 0.00 | 0.00 | 68 | 1016.4 |
| 20260831213048 | 31 | 331 | 3.2 | 9.7 | 0.00 | 0.00 | 0.00 | 67 | 1016.2 |
| 20260831211542 | 31 | 319 | 4.8 | 9.7 | 0.00 | 0.00 | 0.00 | 67 | 1016.2 |
| 20260831210052 | 31 | 5 | 0.0 | 8.0 | 0.00 | 0.00 | 0.00 | 66 | 1016.3 |
| 20260831204550 | 31 | 28 | 6.4 | 9.7 | 0.00 | 0.00 | 0.00 | 64 | 1016.5 |
| 20260831203105 | 31 | 49 | 3.2 | 6.4 | 0.00 | 0.00 | 0.00 | 64 | 1016.5 |
| 20260831201550 | 31 | 352 | 1.6 | 8.0 | 0.00 | 0.00 | 0.00 | 65 | 1016.4 |